Temperature
6 6 6 6 5 5 5 4 4 3 3 4 4 4 4 3 3 3 3 3 3 3 3 2 2 2 2 2 2 2 2 1 1 1 1 1 1 2
6 6 5 5 5 5 4 4 3 3 2 3 3 3 3 3 3 3 3 3 3 2 2 2 2 2 2 1 1 1 1 1 1 1 1 1 1 1
5 5 5 5 4 4 4 4 3 2 2 3 3 3 3 3 3 3 2 2 2 2 2 2 2 1 1 1 1 1 1 1 1 1 1 1 1 1
5 5 4 4 4 4 3 3 3 2 2 2 3 3 3 2 2 2 2 2 2 2 2 1 1 1 1 1 1 0 0 0 0 0 0 0 1 1
4 4 4 4 4 3 3 3 2 2 2 2 2 2 2 2 2 2 2 2 1 1 1 1 1 1 1 1 0 0 0 0 0 0 0 0 0 0
4 4 4 3 3 3 3 2 2 2 1 1 1 1 1 1 1 1 1 1 1 1 1 1 1 0 0 0 0 0 0 -0 -0 -0 -0 0 0 -0
3 3 3 3 2 2 2 2 2 1 1 1 0 0 0 -0 -0 -0 -0 0 1 1 1 1 0 0 0 0 0 -0 -0 -0 -0 -0 -0 -0 -0 -0
3 3 3 2 2 2 1 1 1 1 0 0 -0 -1 -1 -1 -1 -1 -1 -1 -1 -0 -0 0 0 0 0 -0 -0 -0 -0 -1 -1 -1 -1 -1 -1 -1
3 2 2 2 2 1 1 1 1 1 0 -0 -0 -1 -1 -1 -1 -1 -1 -1 -1 -1 -1 -0 -0 -0 0 -0 -1 -1 -1 -1 -1 -1 -1 -1 -1 -1
2 2 2 2 1 1 1 1 1 1 0 -0 -0 -0 -1 -1 -1 -2 -2 -2 -1 -1 -2 -2 -1 -1 0 -0 -1 -1 -1 -1 -1 -1 -1 -1 -1 -1
1 1 1 1 1 1 0 0 1 0 0 0 -0 -0 -1 -1 -2 -2 -2 -2 -2 -2 -2 -2 -2 -2 -1 -0 -1 -1 -1 -1 -1 -1 -1 -1 -1 -1
1 1 1 1 0 0 0 -0 0 0 0 0 -0 -0 -1 -1 -2 -2 -2 -3 -3 -3 -3 -3 -3 -3 -3 -1 -1 -1 -1 -1 -1 -1 -1 -2 -2 -2
1 1 0 0 0 -0 -0 -0 -1 -1 -1 -1 -1 -1 -1 -1 -2 -2 -2 -3 -3 -4 -3 -4 -4 -4 -4 -3 -2 -1 -2 -2 -2 -1 -1 -2 -2 -2
0 0 0 -0 -0 -0 -0 -1 -1 -1 -1 -1 -1 -1 -2 -2 -2 -2 -2 -3 -3 -3 -3 -4 -4 -4 -4 -4 -3 -2 -2 -2 -2 -2 -2 -2 -2 -2
-0 -0 -0 -0 -1 -1 -1 -1 -1 -1 -1 -2 -2 -2 -2 -2 -2 -2 -2 -3 -3 -3 -3 -4 -4 -4 -4 -4 -4 -3 -3 -2 -2 -2 -2 -2 -2 -2
-1 -1 -1 -1 -1 -1 -1 -1 -2 -2 -2 -2 -2 -2 -3 -3 -3 -3 -3 -3 -3 -3 -3 -3 -3 -3 -3 -3 -3 -3 -3 -3 -3 -3 -2 -2 -2 -2
-1 -1 -1 -1 -1 -1 -1 -2 -2 -2 -2 -3 -3 -3 -3 -3 -3 -3 -3 -4 -4 -4 -3 -3 -3 -3 -3 -3 -3 -3 -3 -3 -3 -3 -3 -2 -2 -2
-2 -2 -2 -2 -2 -2 -2 -2 -2 -3 -3 -3 -3 -3 -3 -4 -3 -4 -4 -4 -4 -4 -4 -4 -4 -3 -3 -3 -3 -4 -3 -3 -3 -3 -3 -3 -2 -2
-2 -2 -2 -2 -2 -3 -3 -3 -3 -3 -3 -3 -3 -4 -4 -4 -4 -4 -4 -4 -4 -4 -4 -4 -4 -5 -5 -5 -3 -3 -4 -3 -3 -3 -3 -3 -3 -2
-2 -3 -3 -3 -3 -3 -3 -3 -3 -3 -3 -4 -4 -4 -4 -4 -4 -5 -5 -5 -5 -5 -4 -4 -5 -5 -5 -5 -5 -3 -3 -4 -3 -3 -3 -3 -3 -2
-3 -3 -3 -3 -3 -3 -3 -4 -4 -4 -4 -4 -4 -4 -4 -5 -5 -5 -5 -5 -5 -5 -5 -4 -5 -5 -5 -4 -4 -4 -3 -3 -3 -3 -3 -3 -3 -3
-3 -3 -3 -4 -4 -4 -4 -4 -4 -4 -4 -4 -4 -5 -5 -5 -5 -5 -5 -5 -5 -5 -5 -5 -4 -4 -4 -4 -4 -4 -3 -3 -3 -3 -3 -3 -4 -4
-4 -4 -4 -4 -4 -4 -4 -4 -4 -4 -5 -5 -5 -5 -5 -5 -5 -5 -5 -5 -5 -5 -5 -5 -4 -4 -4 -4 -4 -4 -4 -3 -3 -3 -3 -3 -3 -3
Wind_Speed
2 2 1 1 1 1 1 1 1 2 4 3 3 3 10 11 14 13 14 16 18 18 18 18 18 19 19 19 19 20 21 21 22 22 23 23 24 24
2 2 1 1 1 0 0 0 1 2 3 3 4 6 9 11 14 14 14 17 17 18 18 18 18 19 19 19 19 20 21 22 22 23 23 23 24 24
2 2 1 1 1 0 0 0 0 1 4 5 4 5 6 7 11 13 14 13 14 17 18 18 18 18 19 19 19 20 20 21 22 23 23 23 24 24
2 2 1 1 1 0 0 1 1 2 3 6 5 5 6 7 8 9 11 13 13 16 17 18 18 19 19 19 19 19 20 21 22 22 23 23 24 24
3 2 1 1 0 1 1 1 2 2 2 3 5 5 5 6 8 8 9 9 12 14 15 16 18 19 19 19 19 19 20 21 22 22 23 23 23 23
2 2 2 2 2 1 1 1 2 2 3 3 5 5 5 6 6 8 9 8 9 10 12 15 18 19 19 19 19 19 20 21 21 22 22 22 22 22
1 1 1 1 1 1 1 2 1 2 3 4 5 5 6 7 7 7 9 10 8 5 7 9 11 10 13 17 18 19 20 21 21 22 22 22 22 22
1 0 0 0 1 2 3 3 3 3 3 4 4 6 7 7 7 7 8 9 7 4 8 10 7 8 9 11 17 20 20 20 21 22 23 22 21 21
2 1 0 1 2 2 3 4 4 5 5 4 5 6 7 7 7 7 7 8 8 7 7 8 6 8 9 14 18 18 19 20 21 22 23 22 21 21
1 2 1 1 2 2 1 2 3 4 5 4 4 5 6 5 5 6 7 7 7 5 4 5 6 7 10 11 15 16 19 20 21 22 23 22 21 21
1 0 0 1 2 3 2 2 4 4 7 7 7 8 9 9 8 4 6 7 8 6 3 3 5 8 7 6 10 16 18 20 21 22 22 22 21 19
1 0 1 2 3 3 1 1 3 4 5 6 7 8 7 8 9 5 4 5 6 5 3 5 5 6 6 4 5 10 12 16 20 21 21 21 21 14
1 0 1 3 3 4 3 1 3 4 3 4 4 4 5 5 5 6 5 3 5 5 5 5 5 5 5 6 6 7 8 9 11 13 17 20 21 16
1 0 1 3 4 4 4 4 5 4 2 3 4 4 5 6 6 7 8 7 6 7 8 6 4 6 7 7 6 7 7 9 8 8 10 16 17 18
1 2 3 3 4 4 5 6 5 3 2 3 4 4 5 5 6 6 6 7 7 8 8 7 5 6 6 6 6 7 7 7 7 8 9 9 9 9
2 3 4 5 4 4 4 4 3 3 3 3 4 4 5 5 5 5 5 6 6 6 7 8 7 6 6 7 6 7 7 6 8 9 9 8 8 8
3 2 2 3 3 3 3 4 4 4 4 4 4 4 5 5 5 5 5 5 5 7 8 7 8 8 6 5 5 6 6 7 7 9 9 9 9 8
3 2 2 2 2 2 3 4 4 4 4 4 4 4 5 5 6 6 5 5 6 7 7 7 8 7 5 2 2 5 5 6 7 8 7 7 9 9
2 2 1 1 2 2 2 3 3 4 4 4 4 4 5 5 5 6 6 6 6 6 6 6 7 6 7 7 5 4 5 7 7 7 6 6 7 9
1 1 0 1 1 2 2 3 3 4 4 4 4 4 4 5 5 5 6 6 7 7 7 6 5 6 5 5 5 5 9 6 6 7 7 6 6 8
1 0 0 1 1 2 2 3 3 3 3 3 4 4 4 4 5 5 6 8 7 6 7 7 7 10 6 4 4 5 5 8 7 5 6 6 6 6
0 0 1 1 2 2 2 2 3 3 3 3 4 4 4 4 5 6 6 6 6 6 6 6 7 6 4 4 5 6 6 8 10 11 9 6 4 4
1 1 1 2 2 2 2 2 3 3 3 3 3 4 4 4 5 5 5 5 5 6 6 6 6 4 4 4 4 5 7 7 6 7 7 12 12 10
Wind_Direction
144 135 123 124 130 142 163 176 190 290 290 293 306 313 330 329 329 330 326 325 330 332 333 333 333 332 332 331 331 330 328 327 326 326 325 324 322 321
142 130 112 117 117 92 144 196 208 233 275 286 289 306 318 324 329 328 323 327 329 331 332 332 333 333 332 332 333 331 329 328 327 326 325 324 323 322
134 136 131 119 113 61 56 330 290 249 273 294 292 306 308 320 328 328 327 325 326 330 330 332 333 333 333 333 332 331 329 328 328 327 327 325 324 322
150 140 142 111 97 20 281 278 275 264 265 295 305 312 312 318 321 322 328 327 324 326 329 332 332 332 332 332 333 332 331 330 330 329 328 327 326 325
164 164 176 161 224 280 277 283 290 301 280 287 305 312 315 324 327 324 323 321 325 327 329 331 332 332 332 333 334 334 332 332 331 330 330 328 328 328
166 172 187 196 223 246 272 278 296 310 313 310 312 320 320 323 328 331 330 329 325 325 328 329 329 331 332 331 332 333 334 334 333 333 332 331 331 329
143 165 214 218 267 288 312 288 306 318 321 322 319 324 325 332 331 326 324 324 318 316 325 323 324 323 326 328 331 333 336 337 337 337 336 335 333 331
148 119 254 274 315 317 313 313 322 319 313 312 311 315 313 316 318 323 324 329 325 328 330 319 318 317 321 325 328 333 337 340 340 340 338 337 336 335
161 155 328 310 339 299 311 334 325 319 309 296 294 298 299 305 313 317 319 316 305 310 322 311 315 315 318 323 328 334 339 342 342 341 340 339 338 338
165 179 200 282 299 322 349 339 325 317 313 305 282 287 297 303 303 305 303 306 299 299 310 303 313 316 317 317 325 336 341 343 343 343 343 342 340 339
157 159 203 249 306 353 12 340 333 330 340 338 332 328 330 333 338 337 334 333 325 319 323 309 312 319 311 306 323 335 339 340 342 343 344 344 342 339
114 208 303 324 336 353 1 331 325 326 337 345 346 344 345 344 347 346 329 327 324 317 327 330 317 329 319 304 315 328 333 336 340 342 344 347 347 345
130 321 309 345 351 352 357 332 321 334 340 342 340 341 347 346 342 339 328 311 310 302 311 324 313 318 306 309 314 320 330 334 337 339 342 346 348 349
162 288 334 357 6 8 7 357 360 3 0 354 351 347 343 337 331 329 326 318 300 288 295 302 298 308 315 313 313 321 327 332 338 340 342 344 346 345
94 45 30 32 24 18 17 18 17 10 5 358 345 336 329 322 326 332 333 333 324 316 311 305 299 306 304 302 308 316 323 329 339 344 344 346 343 342
63 57 50 46 36 26 21 17 10 3 1 348 336 330 329 333 336 335 332 337 336 332 329 326 316 310 308 298 300 311 322 326 333 338 340 342 341 345
83 60 44 31 26 19 12 9 6 5 4 352 345 342 340 340 336 336 335 338 339 335 335 334 333 315 289 291 303 315 325 329 331 336 340 342 343 346
85 81 53 33 21 7 359 355 355 357 354 348 346 343 338 336 336 336 339 339 337 333 332 331 337 339 337 324 297 312 329 332 334 339 342 344 344 346
84 90 61 14 356 349 344 341 338 339 341 343 342 340 336 333 334 336 338 338 336 333 330 333 339 344 346 344 336 343 330 329 336 340 342 340 336 334
81 102 53 335 330 330 330 332 333 336 340 342 340 337 335 334 334 336 338 337 334 332 332 336 340 339 329 318 316 325 334 329 332 334 335 335 328 322
55 51 323 311 316 319 320 324 325 325 330 335 335 334 335 334 333 333 334 334 336 334 334 332 324 325 314 312 326 338 340 348 346 331 327 333 341 353
10 332 317 312 313 314 319 323 323 322 328 330 327 329 330 328 326 328 332 332 331 331 326 325 327 338 352 353 344 338 340 344 356 2 3 2 351 356
287 292 299 303 308 311 313 314 313 313 315 315 318 324 325 323 322 323 325 327 330 333 334 336 343 350 348 340 342 344 345 349 356 5 8 6 6 1
Height
1515 1515 1515 1515 1515 1514 1513 1512 1511 1507 1504 1503 1501 1499 1497 1494 1491 1487 1483 1479 1475 1471 1467 1463 1459 1455 1451 1446 1442 1439 1435 1431 1426 1422 1418 1414 1409 1405
1512 1513 1513 1512 1512 1512 1511 1510 1508 1507 1503 1500 1499 1496 1494 1491 1488 1484 1480 1476 1472 1468 1464 1460 1456 1451 1447 1443 1439 1435 1431 1426 1422 1417 1413 1409 1404 1400
1510 1510 1510 1510 1510 1509 1508 1507 1506 1504 1501 1497 1496 1494 1491 1487 1484 1481 1477 1473 1469 1465 1461 1457 1452 1448 1444 1439 1435 1431 1427 1422 1418 1413 1408 1404 1399 1395
1507 1507 1508 1507 1507 1506 1506 1504 1503 1501 1499 1494 1492 1490 1487 1484 1480 1477 1474 1470 1466 1462 1458 1454 1449 1445 1440 1436 1432 1427 1423 1418 1413 1409 1404 1399 1394 1390
1504 1505 1505 1505 1504 1504 1503 1502 1500 1498 1496 1493 1489 1487 1483 1480 1477 1473 1470 1466 1463 1459 1455 1450 1446 1442 1437 1432 1428 1423 1419 1414 1409 1404 1400 1395 1390 1385
1502 1502 1502 1502 1501 1501 1500 1499 1497 1495 1493 1490 1487 1484 1480 1477 1474 1469 1465 1462 1459 1455 1452 1448 1443 1439 1434 1429 1425 1420 1415 1410 1406 1401 1396 1390 1385 1380
1499 1499 1499 1499 1499 1498 1497 1496 1494 1492 1490 1487 1484 1481 1477 1474 1471 1467 1463 1458 1455 1451 1447 1444 1439 1435 1431 1426 1421 1416 1412 1407 1402 1397 1392 1386 1381 1376
1496 1496 1497 1497 1496 1495 1495 1493 1492 1489 1487 1485 1482 1478 1475 1472 1469 1465 1461 1456 1450 1449 1444 1440 1437 1432 1427 1423 1418 1414 1409 1404 1399 1394 1388 1383 1378 1372
1493 1493 1493 1494 1493 1492 1492 1491 1489 1487 1486 1483 1480 1477 1473 1470 1467 1463 1460 1456 1451 1447 1442 1436 1433 1428 1424 1420 1416 1412 1407 1402 1397 1391 1386 1380 1375 1369
1490 1490 1490 1490 1490 1489 1488 1487 1486 1484 1482 1480 1478 1475 1472 1468 1465 1462 1458 1454 1450 1446 1441 1434 1429 1425 1421 1418 1414 1409 1405 1400 1394 1389 1383 1378 1372 1367
1487 1488 1488 1488 1487 1486 1485 1484 1482 1481 1480 1478 1475 1473 1470 1467 1464 1460 1455 1451 1446 1442 1439 1434 1428 1422 1417 1414 1411 1407 1402 1398 1393 1387 1381 1376 1370 1365
1485 1485 1485 1485 1485 1484 1482 1481 1479 1478 1476 1474 1472 1470 1467 1464 1462 1458 1454 1450 1445 1440 1437 1433 1428 1422 1415 1411 1409 1405 1400 1396 1391 1386 1380 1375 1369 1364
1482 1483 1483 1482 1482 1481 1480 1479 1477 1476 1473 1472 1469 1467 1464 1462 1459 1456 1453 1449 1445 1441 1438 1433 1428 1423 1419 1412 1406 1404 1399 1394 1389 1384 1380 1375 1369 1364
1480 1480 1480 1480 1480 1479 1478 1477 1475 1474 1472 1469 1467 1464 1462 1459 1456 1454 1451 1448 1444 1441 1437 1433 1429 1424 1418 1412 1407 1402 1399 1394 1389 1384 1379 1374 1370 1366
1478 1479 1479 1478 1477 1477 1476 1474 1473 1471 1469 1467 1465 1463 1460 1458 1455 1452 1449 1446 1443 1440 1436 1432 1428 1424 1420 1414 1408 1403 1398 1394 1390 1385 1379 1375 1370 1365
1476 1477 1477 1476 1475 1475 1474 1473 1471 1470 1468 1466 1464 1462 1459 1456 1453 1450 1446 1443 1440 1437 1435 1431 1427 1423 1418 1414 1409 1404 1400 1395 1390 1386 1381 1376 1371 1367
1474 1474 1474 1474 1473 1473 1472 1471 1469 1468 1466 1464 1462 1460 1457 1455 1452 1449 1446 1442 1439 1435 1431 1429 1425 1422 1417 1413 1409 1405 1401 1396 1392 1387 1381 1376 1373 1369
1472 1472 1472 1472 1471 1471 1470 1468 1467 1466 1464 1463 1461 1459 1456 1453 1451 1448 1445 1442 1438 1434 1431 1427 1423 1419 1415 1412 1410 1405 1401 1397 1393 1389 1384 1378 1374 1371
1470 1470 1470 1470 1470 1469 1468 1467 1466 1464 1463 1462 1460 1458 1455 1453 1450 1447 1444 1441 1437 1434 1431 1427 1423 1419 1415 1411 1409 1407 1402 1397 1393 1389 1385 1381 1377 1373
1469 1469 1469 1469 1468 1468 1467 1466 1464 1463 1462 1460 1458 1456 1454 1452 1449 1446 1443 1440 1437 1433 1430 1427 1424 1421 1417 1414 1410 1406 1404 1399 1394 1390 1386 1383 1379 1376
1467 1467 1467 1467 1467 1466 1465 1464 1463 1462 1460 1459 1457 1455 1453 1451 1448 1445 1443 1440 1437 1433 1430 1427 1424 1422 1419 1415 1411 1407 1404 1401 1397 1393 1388 1384 1380 1376
1466 1465 1465 1465 1465 1464 1463 1462 1461 1460 1459 1457 1456 1454 1452 1450 1447 1445 1442 1439 1436 1434 1430 1428 1425 1422 1419 1415 1412 1408 1405 1402 1399 1396 1392 1388 1385 1380
1464 1464 1463 1463 1463 1462 1461 1461 1460 1459 1457 1456 1454 1453 1451 1449 1447 1444 1442 1439 1436 1434 1431 1428 1425 1422 1419 1416 1413 1410 1407 1403 1400 1396 1394 1392 1389 1386